Weather History for Bloomington, IL

Change the Weather History Date:

Saturday, October 29, 2011

  Actual Average Record
Temperature  
Mean Temperature 44 °F -  
Max Temperature 55 °F 68 °F 78 °F (2004)
Min Temperature 34 °F 36 °F 28 °F (2010)
Degree Days  
Heating Degree Days 20    
Moisture  
Dew Point 29 °F    
Average Humidity 58    
Maximum Humidity 89    
Minimum Humidity 31    
Precipitation  
Precipitation 0.00 in - - ()
Sea Level Pressure  
Sea Level Pressure 30.12 in    
Wind  
Wind Speed 9 mph (WSW)    
Max Wind Speed 20 mph    
Max Gust Speed -    
Visibility 10 miles    
Events      
Averages and records for this station are not official NWS values.
T = Trace of Precipitation, MM = Missing Value Source: NWS Daily Summary

Daily Weather History Graph

Daily Weather History Graph

Search for Another Location

Airport:

Trip Planner

Search our weather history database for the weather conditions in past years. The results will help you decide how hot, cold, wet, or windy it might be!

Date:

Astronomy

Oct. 29, 2011 Rise Set
Actual Time 7:21 AM CDT 5:56 PM CDT
Civil Twilight 6:53 AM CDT 6:24 PM CDT
Nautical Twilight 6:21 AM CDT 6:56 PM CDT
Astronomical Twilight 5:49 AM CDT 7:28 PM CDT
Moon 10:44 AM CDT (10/29) 8:19 PM CDT (10/29)
Length of Visible Light 11h 30m
Length of Day
10h 34m
Waxing Crescent, 12% of the Moon is Illuminated
Oct 29
Waxing Crescent
Nov 2
First Quarter
Nov 10
Full
Nov 18
Last Quarter
Nov 25
New

Hourly Weather History & Observations

Time (CDT) Temp. Windchill Dew Point Humidity Pressure Visibility Wind Dir Wind Speed Gust Speed Precip Events Conditions
12:56 AM 43.9 °F 39.9 °F 34.0 °F 68% 30.09 in 10.0 mi SW 6.9 mph - N/A   Scattered Clouds
1:56 AM 41.0 °F 35.8 °F 34.9 °F 79% 30.09 in 10.0 mi SW 8.1 mph - N/A   Clear
2:56 AM 39.9 °F 33.9 °F 34.9 °F 82% 30.09 in 10.0 mi SW 9.2 mph - N/A   Clear
3:56 AM 39.9 °F 33.9 °F 34.9 °F 82% 30.07 in 10.0 mi WSW 9.2 mph - N/A   Clear
4:56 AM 37.9 °F 31.5 °F 34.9 °F 89% 30.08 in 10.0 mi WSW 9.2 mph - N/A   Clear
5:56 AM 37.9 °F 32.1 °F 32.9 °F 82% 30.09 in 10.0 mi WSW 8.1 mph - N/A   Clear
6:56 AM 34.9 °F 28.3 °F 32.0 °F 89% 30.09 in 10.0 mi WSW 8.1 mph - N/A   Clear
7:56 AM 36.0 °F 29.0 °F 32.0 °F 86% 30.10 in 10.0 mi WSW 9.2 mph - N/A   Clear
9:56 AM 41.9 °F 35.0 °F 31.1 °F 66% 30.13 in 10.0 mi West 12.7 mph - N/A   Clear
10:56 AM 47.8 °F - 32.0 °F 54% 30.14 in 10.0 mi West 13.8 mph - N/A   Clear
11:56 AM 52.9 °F - 30.0 °F 42% 30.14 in 10.0 mi NW 17.3 mph - N/A   Clear
12:56 PM 54.9 °F - 28.0 °F 36% 30.14 in 10.0 mi NW 19.6 mph - N/A   Clear
1:56 PM 55.9 °F - 28.0 °F 34% 30.12 in 10.0 mi West 13.8 mph - N/A   Clear
2:56 PM 55.9 °F - 26.1 °F 32% 30.11 in 10.0 mi WNW 13.8 mph - N/A   Clear
3:56 PM 55.9 °F - 25.2 °F 31% 30.11 in 10.0 mi NW 11.5 mph - N/A   Clear
4:56 PM 54.9 °F - 25.2 °F 32% 30.11 in 10.0 mi NW 11.5 mph - N/A   Clear
5:56 PM 50.9 °F - 26.1 °F 38% 30.12 in 10.0 mi Calm Calm - N/A   Clear
6:56 PM 45.9 °F - 26.1 °F 46% 30.15 in 10.0 mi Calm Calm - N/A   Clear
7:56 PM 45.0 °F 41.8 °F 25.2 °F 46% 30.15 in 10.0 mi East 5.8 mph - N/A   Clear
8:56 PM 41.0 °F 36.4 °F 25.2 °F 53% 30.16 in 10.0 mi ESE 6.9 mph - N/A   Clear
9:56 PM 41.9 °F 36.9 °F 25.2 °F 52% 30.16 in 10.0 mi SE 8.1 mph - N/A   Clear
10:56 PM 37.9 °F 31.5 °F 26.1 °F 62% 30.15 in 10.0 mi SE 9.2 mph - N/A   Clear
11:56 PM 41.0 °F 35.2 °F 26.1 °F 55% 30.14 in 10.0 mi SE 9.2 mph - N/A   Clear